Starlink 32898

operational
NORAD ID: 62998 Int'l Des: 2025-031 Owner: SPXS Country: US Constellation: starlink
LEOCIRCULAR

About Starlink 32898

Description loading...

Live Position

Loading 3D Globe...

Upcoming Passes

Altitude History

Altitude vs Time

uPlot chart will show altitude changes over time

Two-Line Element Set

1 62998U 25031T 25258.13426183 .00061228 00000-0 22126-2 0 9999
2 62998 43.0039 55.0056 0002250 270.9164 89.1430 15.27630778 34248
Epoch: Sep 15, 2025 • Age: 16 hours

Current Status

Altitude 482.7 km
Velocity 7.63 km/s
Sub-Earth Point -1.58°S, 57.83°W
Launch Date Feb 11, 2025
Age 0.5 years
Type internet

Technical Details

Classification Payload
Mass 730.00 kg
Dry Mass 700.00 kg
Total Mass 730.00 kg
Length 0.30 m
Diameter 4.10 m
Span 29.00 m
Shape Box + pan
Manufacturer SPXS
Bus Type Starlink V2M
Phase Status In Orbit
Owner/State SPXS/US

Large Constellations

Loading constellations...